Regional Weather Roundup
Issued by NWS

Home | Current Version | Previous Version | Graphics & Text | Print | Product List | Glossary On
Versions: 1 2 3 4 5 6 7 8 9 10 11 12 13 14 15 16 17 18 19 20 21 22 23 24 25 26 27 28 29 30 31 32 33 34 35 36 37 38 39 40 41 42 43 44 45 46 47 48 49 50
000
ASUS43 KMPX 290710
RWRMN
WEATHER ROUNDUP FOR MINNESOTA
NATIONAL WEATHER SERVICE TWIN CITIES/CHANHASSEN MN
200 AM CDT FRI APR 29 2016


NOTE: "FAIR" INDICATES FEW OR NO CLOUDS BELOW 12,000 FEET WITH NO
SIGNIFICANT WEATHER AND/OR OBSTRUCTIONS TO VISIBILITY. N/A MEANS
CURRENT SKY AND/OR WEATHER CONDITIONS ARE NOT AVAILABLE.

MNZ060>063-068>070-290800-
   Twin Cities Metro

CITY           SKY/WX    TMP DP  RH WIND       PRES   REMARKS
TWIN CITIES    CLOUDY    37  34  89 CALM      30.14F
ST PAUL        CLOUDY    37  35  92 CALM      30.16R
CRYSTAL        FOG       37  35  92 CALM      30.14R VSB 3/4
BLAINE         CLOUDY    41  41 100 CALM      30.15S
EDEN PRAIRIE   CLOUDY    37  33  85 NE6       30.13S
SOUTH ST PAUL  CLEAR     36  36  97 CALM      30.15R
LAKE ELMO      MOCLDY    36  34  93 CALM      30.16R
$$
MNZ001>005-007-008-013>017-022>024-027-028-290800-
   Northwest Minnesota

CITY           SKY/WX    TMP DP  RH WIND       PRES   REMARKS
BEMIDJI        PTCLDY    38  31  76 CALM      30.15R
HALLOCK        CLOUDY    41  27  56 N3        30.19S
ROSEAU         CLOUDY    37  30  75 CALM      30.19S
WARROAD        CLOUDY    39  32  75 N3        30.20S
THIEF RVR FALL PTCLDY    43  27  52 NE9       30.18S
CROOKSTON      PTCLDY    43  25  49 E8        30.17S
FOSSTON        CLOUDY    37  27  65 NE6       30.16S
DETROIT LAKES  CLOUDY    41  36  81 SW3       30.15S
MOORHEAD       CLOUDY    41  37  87 S5        30.15S
PARK RAPIDS    CLOUDY    39  30  70 S6        30.13F
MAHNOMEN       FAIR      39  29  67 N3        30.14S
$$
MNZ006-009>011-018-025>026-290800-
   North Central Minnesota

CITY           SKY/WX    TMP DP  RH WIND       PRES   REMARKS
BAUDETTE       CLOUDY    37  28  70 NE3       30.18R
FLAG ISLAND    CLOUDY    39  36  87 CALM      30.19S
INTL FALLS     CLOUDY    38  30  73 NE5       30.17R
WASKISH        PTCLDY    39  30  70 NE5       30.16S
BIG FORK       CLOUDY    30  27  86 CALM      30.15S
LONGVILLE      CLEAR     30  27  86 CALM      30.14S
GRAND RAPIDS   CLEAR     30  21  69 CALM      30.16S
CRANE LAKE     CLOUDY    28  27  93 CALM      30.18S
ORR            PTCLDY    32  27  80 CALM      30.14R
COOK           CLOUDY    28  27  93 CALM      30.16S
WALKER         FAIR      38  26  62 CALM      30.14S
$$
MNZ012-019>021-037-290800-
   Northeast Minnesota

CITY           SKY/WX    TMP DP  RH WIND       PRES   REMARKS
DULUTH         CLOUDY    30  24  78 N3        30.13S
ELY            CLOUDY    30  28  93 CALM      30.15S
HIBBING        CLOUDY    27  25  92 CALM      30.15R
EVELETH        CLOUDY    30  28  93 CALM      30.16S
DULUTH HARBOR  CLOUDY    37  34  87 CALM      30.17S
TWO HARBORS    CLOUDY    37  28  70 N5        30.12S
SILVER BAY     CLEAR     28  25  86 CALM      30.13S
GRAND MARAIS     N/A     31  27  85 CALM      30.16S
G MARAIS ARPRT CLEAR     28  23  80 N3        30.14R
$$
MNZ029>031-032-039>041-046>048-054>057-064-290800-
   West Central Minnesota

CITY           SKY/WX    TMP DP  RH WIND       PRES   REMARKS
FERGUS FALLS   PTCLDY    39  39 100 CALM      30.14S
WHEATON        CLOUDY    43  39  87 CALM      30.16F
MORRIS         PTCLDY    37  36  93 CALM      30.14F
ALEXANDRIA     CLOUDY    39  36  89 CALM      30.16S
ELBOW LAKE     FAIR      39  38  94 E3        30.16S
WADENA         CLOUDY    36  36 100 CALM      30.15S
GLENWOOD       CLOUDY    37  36  93 N3        30.15S
APPLETON       CLOUDY    39  37  93 CALM      30.15S
BENSON         CLOUDY    37  36  93 NE3       30.15S
ORTONVILLE     CLOUDY    39  37  93 E3        30.14F
MADISON        CLOUDY    39  39 100 CALM      30.15S
WILLMAR        MOCLDY    39  39 100 CALM      30.16R
$$
MNZ033>034-036-042>043-049>051-058-059-290800-
   Central Minnesota

CITY           SKY/WX    TMP DP  RH WIND       PRES   REMARKS
ST CLOUD       CLOUDY    38  37  97 NW5       30.14S
SAUK CENTRE    FAIR      37  36  96 N3        30.16S
PAYNESVILLE    CLOUDY    37  37 100 CALM      30.16S
AITKIN         CLOUDY    34  27  75 CALM      30.13F
PINE RIVER     PTCLDY    34  27  75 CALM      30.17S
BRAINERD       CLOUDY    35  28  75 CALM      30.14F
STAPLES        CLOUDY    36  34  93 W5        30.14F
LONG PRAIRIE   FAIR      34  34 100 CALM      30.16S FOG
LITTLE FALLS   CLOUDY    37  34  87 CALM      30.15
LITCHFIELD     CLOUDY    39  39 100 N3        30.14F
BUFFALO        CLOUDY    38  36  93 CALM      30.16S
MAPLE LAKE     CLOUDY    39  38  98 CALM      30.16S FOG
HUTCHINSON     CLOUDY    39  38  95 NE3       30.15R
$$
MNZ037-044-045-052-053-290800-
   East Central Minnesota

CITY           SKY/WX    TMP DP  RH WIND       PRES   REMARKS
PRINCETON        N/A     39  37  93 CALM      30.15S
MORA           PTCLDY    36  28  75 CALM      30.16S
CAMBRIDGE      HAZE      37  30  75 CALM      30.13R VSB 1
RUSH CITY      CLOUDY    36  28  74 N3        30.14R
MOOSE LAKE     PTCLDY    32  30  93 CALM      30.13S
HINCKLEY       FAIR      34  30  86 N3        30.14S
CLOQUET        CLOUDY    28  25  86 CALM      30.14S
MCGREGOR       CLOUDY    34  28  80 CALM      30.15S
$$
MNZ071>073-080-081-089-090-097-098-290800-
   Southwest Minnesota

CITY           SKY/WX    TMP DP  RH WIND       PRES   REMARKS
MONTEVIDEO     CLOUDY    39  39 100 CALM      30.17S
GRANITE FALLS  CLOUDY    40  38  93 CALM      30.17R
CANBY          CLOUDY    42  41  98 CALM      30.17R FOG
MARSHALL       MOCLDY    37  36  93 E3        30.15R
REDWOOD FALLS  CLOUDY    38  34  85 E3        30.14R
OLIVIA         CLOUDY    37  34  87 CALM      30.14R
PIPESTONE      CLOUDY    39  37  93 E5        30.12S
WINDOM         CLOUDY    37  37 100 NE6       30.12S FOG
WORTHINGTON    CLOUDY    38  36  92 NE8       30.13R
JACKSON        CLOUDY    39  36  87 E5        30.12S
TRACY          CLOUDY    38  37  97 NE7       30.13F
SLAYTON        CLOUDY    37  37 100 E7        30.13R
$$
MNZ065>067-074>077-082>085-091>093-290800-
   South Central Minnesota

CITY           SKY/WX    TMP DP  RH WIND       PRES   REMARKS
MANKATO        CLOUDY    39  36  87 E5        30.13S
NEW ULM        CLOUDY    37  37 100 CALM      30.13S
ST JAMES       CLOUDY    34  34 100 N6        30.13S WCI  29
FAIRMONT       CLOUDY    39  30  70 E7        30.12R
GLENCOE        PTCLDY    38  38 100 CALM      30.13R
FARIBAULT      CLOUDY    37  36  93 NE5       30.12S
OWATONNA       CLOUDY    37  36  93 E5        30.11F
WASECA         CLOUDY    37  36  93 E5        30.13S
ALBERT LEA     CLOUDY    39  39 100 NE7       30.10S
$$
MNZ078>079-086>088-094>096-290800-
   Southeast Minnesota

CITY           SKY/WX    TMP DP  RH WIND       PRES   REMARKS
ROCHESTER      CLOUDY    37  37 100 NE6       30.10S
RED WING       CLOUDY    37  37 100 CALM      30.13R
STANTON        CLOUDY    38  35  89 CALM      30.12R
DODGE CENTER   CLOUDY    36  36 100 NE5       30.10F
WINONA         CLOUDY    39  36  87 N3        30.12F
AUSTIN         CLOUDY    39  36  87 NE6       30.09F
PRESTON        CLOUDY    37  35  94 CALM      30.09S
$$
ABBREVIATIONS USED IN REMARKS
   TC - TEMPERATURES IN CELSIUS
  WCI - WIND CHILL INDEX
   HX - HEAT INDEX
  VSB - VISIBILITY
$$




USA.gov is the U.S. government's official web portal to all federal, state and local government web resources and services.